#timestamp,LO_Frequency,Hit 
1497225615.0,286043050.8,N
1497225615.9,286043050.8,N
1497225635.8,286043051.5,N
1497225655.6,286043051.2,N
1497225675.4,286043050.8,N
1497225695.3,286043051.0,N
1497225715.1,286043053.4,N
1497225735.9,286043051.3,N
1497225755.7,286043053.6,N
1497225775.5,286043050.9,N
1497225795.4,286043052.7,N
1497225815.2,286043052.5,N
1497225835.0,286043052.7,N
1497225835.9,286043052.7,N
1497225855.8,286043052.6,N
1497225875.6,286043053.3,N
1497225895.5,286043053.9,N
1497225915.3,286043052.6,N
1497225935.1,286043052.5,N
1497225955.9,286043053.3,N
1497225975.7,286043053.6,N
1497225995.5,286043050.9,N
1497226015.4,286043055.2,N
1497226035.2,286043053.0,N
1497226055.1,286043053.7,N
1497226056.0,286043053.7,N
1497226075.8,286043051.2,N
1497226095.6,286043051.5,N
1497226115.5,286043053.7,N
1497226135.3,286043053.5,N
1497226155.1,286043050.9,N
1497226175.9,286043053.2,N
1497226195.7,286043053.1,N
1497226215.6,286043051.2,N
1497226235.4,286043053.5,N
1497226255.2,286043050.8,N
1497226275.1,286043051.4,N
1497226276.0,286043051.4,N
1497226295.8,286043051.2,N
1497226315.6,286043053.5,N
1497226335.5,286043051.1,N
1497226355.3,286043051.4,N
1497226375.2,286043053.8,N
1497226395.9,286043051.9,N
1497226415.7,286043052.2,N
1497226435.6,286043051.6,N
1497226455.4,286043049.6,N
1497226475.2,286043049.4,N
1497226495.1,286043049.4,N
1497226496.0,286043049.4,N
1497226515.8,286043050.5,N
1497226535.7,286043049.5,N
1497226555.5,286043049.2,N
1497226575.3,286043050.0,N
1497226595.2,286043049.2,N
1497226615.9,286043052.1,N
1497226635.7,286043049.7,N
1497226655.6,286043049.2,N
1497226675.4,286043051.5,N
1497226695.3,286043051.1,N
1497226715.1,286043052.0,N
1497226716.0,286043052.0,N
1497226735.8,286043051.1,N
1497226755.7,286043049.7,N
1497226775.5,286043049.8,N
1497226795.3,286043049.2,N
1497226815.2,286043051.7,N
1497226835.0,286043053.2,N
1497226835.9,286043053.2,N
1497226855.8,286043051.3,N
1497226875.6,286043051.5,N
1497226895.4,286043051.8,N
1497226915.3,286043052.1,N
1497226935.1,286043051.3,N
1497226955.8,286043051.2,N
1497226975.7,286043052.1,N
1497226995.5,286043050.9,N
1497227015.4,286043053.5,N
1497227035.2,286043053.5,N
1497227055.0,286043053.3,N
1497227055.9,286043053.3,N
1497227075.8,286043050.8,N
1497227095.6,286043050.8,N
1497227115.4,286043053.8,N
1497227135.3,286043050.9,N
1497227155.1,286043050.8,N
1497227175.9,286043053.0,N
1497227195.7,286043051.3,N
1497227215.5,286043051.8,N
1497227235.4,286043049.4,N
1497227255.2,286043052.3,N
1497227275.0,286043051.0,N
1497227275.9,286043051.0,N
1497227295.8,286043051.6,N
1497227315.6,286043051.8,N
1497227335.5,286043049.3,N
1497227355.3,286043049.8,N
1497227375.1,286043049.6,N
1497227395.9,286043052.3,N
1497227415.7,286043052.2,N
1497227435.5,286043051.3,N
1497227455.4,286043052.1,N
1497227475.2,286043053.5,N
1497227495.1,286043049.5,N
1497227496.0,286043049.5,N
1497227515.8,286043049.3,N
1497227535.6,286043049.8,N
1497227555.5,286043049.8,N
1497227575.3,286043051.6,N
1497227595.1,286043052.2,N
1497227615.9,286043052.1,N
1497227635.7,286043051.2,N
1497227655.6,286043053.9,N
1497227675.4,286043053.5,N
1497227695.2,286043051.3,N
1497227715.1,286043051.4,N
1497227716.0,286043051.4,N
1497227735.8,286043052.0,N
1497227755.6,286043053.1,N
1497227775.5,286043051.0,N
1497227795.3,286043051.8,N
1497227815.1,286043051.1,N
1497227835.9,286043051.4,N
1497227855.7,286043051.1,N
1497227875.6,286043051.4,N
1497227895.4,286043053.9,N
1497227915.2,286043050.8,N
1497227935.1,286043053.4,N
1497227936.0,286043053.4,N
1497227955.8,286043050.9,N
1497227975.7,286043051.4,N
1497227995.5,286043051.5,N
1497228015.3,286043052.0,N
1497228035.2,286043051.5,N
1497228055.9,286043053.1,N
1497228075.7,286043050.8,N
1497228095.6,286043049.2,N
1497228115.4,286043052.2,N
1497228135.3,286043049.2,Y
1497228155.1,286047001.0,N
1497228156.0,286047001.0,N
1497228175.8,286047000.7,N
1497228195.7,286047000.7,N
1497228215.5,286047000.0,N
1497228235.3,286047000.9,N
1497228255.2,286046998.6,N
1497228275.0,286047001.2,N
1497228275.9,286047001.2,N
1497228295.8,286046998.6,N
1497228315.6,286046998.2,N
1497228335.4,286046996.6,N
1497228355.3,286047000.0,N
1497228375.1,286047001.0,N
1497228395.8,286047000.0,N
1497228415.7,286047000.6,N
1497228435.5,286047000.1,N
1497228455.4,286046999.9,N
1497228475.2,286047002.1,N
1497228495.0,286047000.4,N
1497228495.9,286047000.4,N
1497228515.8,286047000.1,N
1497228535.6,286046999.8,N
1497228555.4,286047000.9,N
1497228575.3,286047000.2,N
1497228595.1,286046999.9,N
1497228615.9,286047000.6,N
1497228635.7,286047001.2,N
1497228655.5,286047000.3,N
1497228675.4,286047002.7,N
1497228695.2,286047000.1,N
1497228715.0,286046999.9,N
1497228715.9,286046999.9,N
1497228735.8,286047000.5,N
1497228755.6,286047000.1,N
1497228775.5,286047000.9,N
1497228795.3,286047000.8,N
1497228815.1,286046998.3,N
1497228835.9,286046998.7,N
1497228855.7,286047000.5,N
1497228875.5,286046998.9,N
1497228895.4,286047001.2,N
1497228915.2,286046998.2,N
1497228935.1,286047001.1,N
1497228936.0,286047001.1,N
1497228955.8,286047001.0,N
1497228975.6,286046998.1,N
1497228995.5,286046998.9,N
1497229015.3,286046998.4,N
1497229035.1,286046998.9,N
1497229055.9,286047000.6,N
1497229075.7,286047000.2,N
1497229095.6,286046998.4,N
1497229115.4,286046998.3,N
1497229135.2,286046998.8,N
1497229155.1,286047001.1,N
1497229156.0,286047001.1,N
1497229175.8,286046999.4,N
1497229195.7,286046998.4,N
